Weather History for Wise, VA

Change the Weather History Date:

Wednesday, October 22, 2014

  Actual Average Record
Temperature  
Mean Temperature 42 °F -  
Max Temperature 44 °F 61 °F 75 °F (2007)
Min Temperature 39 °F 43 °F 30 °F (1997)
Degree Days  
Heating Degree Days 24    
Moisture  
Dew Point 41 °F    
Average Humidity 97    
Maximum Humidity 100    
Minimum Humidity 76    
Precipitation  
Precipitation 0.00 in - - ()
Sea Level Pressure  
Sea Level Pressure 30.17 in    
Wind  
Wind Speed 6 mph (NNW)    
Max Wind Speed 12 mph    
Max Gust Speed 18 mph    
Visibility 8 miles    
Events Fog , Rain    
Averages and records for this station are not official NWS values.
T = Trace of Precipitation, MM = Missing Value Source: NWS Daily Summary

Daily Weather History Graph

Daily Weather History Graph

Search for Another Location

Airport:

Trip Planner

Search our weather history database for the weather conditions in past years. The results will help you decide how hot, cold, wet, or windy it might be!

Date:

Astronomy

Oct. 22, 2014 Rise Set
Actual Time 7:44 AM EDT 6:44 PM EDT
Civil Twilight 7:17 AM EDT 7:10 PM EDT
Nautical Twilight 6:47 AM EDT 7:40 PM EDT
Astronomical Twilight 6:17 AM EDT 8:10 PM EDT
Moon 6:26 AM EDT (10/22) 6:08 PM EDT (10/22)
Length of Visible Light 11h 52m
Length of Day
10h 59m
Waning Crescent, 2% of the Moon is Illuminated
Oct 22
Waning Crescent
Oct 23
New
Oct 30
First Quarter
Nov 6
Full
Nov 14
Last Quarter

Hourly Weather History & Observations

Time (EDT) Temp. Windchill Dew Point Humidity Pressure Visibility Wind Dir Wind Speed Gust Speed Precip Events Conditions
12:15 AM 44.6 °F 41.4 °F 37.4 °F 76% 30.09 in 10.0 mi NNW 5.8 mph - N/A   Overcast
12:35 AM 44.6 °F 43.1 °F 37.4 °F 76% 30.09 in 10.0 mi NW 3.5 mph - N/A   Overcast
12:55 AM 44.6 °F 41.4 °F 37.4 °F 76% 30.09 in 10.0 mi NW 5.8 mph - N/A   Overcast
1:15 AM 42.8 °F 41.1 °F 37.4 °F 81% 30.09 in 10.0 mi NW 3.5 mph - N/A   Overcast
1:35 AM 42.8 °F 38.6 °F 37.4 °F 81% 30.09 in 10.0 mi NNW 6.9 mph - N/A   Overcast
1:55 AM 42.8 °F 37.5 °F 41.0 °F 93% 30.09 in 10.0 mi North 9.2 mph - N/A   Light Drizzle
2:15 AM 41.0 °F 35.8 °F 41.0 °F 100% 30.09 in 7.0 mi North 8.1 mph - N/A Rain Light Rain
2:35 AM 41.0 °F 35.8 °F 41.0 °F 100% 30.09 in 10.0 mi North 8.1 mph - N/A   Overcast
2:55 AM 41.0 °F 36.4 °F 41.0 °F 100% 30.09 in 7.0 mi North 6.9 mph - N/A   Overcast
3:15 AM 41.0 °F 38.0 °F 41.0 °F 100% 30.09 in 10.0 mi NNW 4.6 mph - N/A   Overcast
3:35 AM 41.0 °F 38.0 °F 41.0 °F 100% 30.09 in 10.0 mi NNW 4.6 mph - N/A   Overcast
3:55 AM 41.0 °F 38.0 °F 41.0 °F 100% 30.09 in 10.0 mi NW 4.6 mph - N/A   Overcast
4:15 AM 41.0 °F 35.2 °F 39.2 °F 93% 30.09 in 10.0 mi North 9.2 mph - N/A   Overcast
4:35 AM 41.0 °F 39.0 °F 39.2 °F 93% 30.09 in 10.0 mi NNW 3.5 mph - N/A   Overcast
4:55 AM 41.0 °F 36.4 °F 41.0 °F 100% 30.10 in 10.0 mi North 6.9 mph - N/A   Overcast
5:15 AM 41.0 °F 36.4 °F 39.2 °F 93% 30.10 in 10.0 mi NNW 6.9 mph - N/A   Overcast
5:35 AM 41.0 °F 35.2 °F 39.2 °F 93% 30.11 in 10.0 mi North 9.2 mph - N/A   Overcast
5:55 AM 39.2 °F 34.2 °F 37.4 °F 93% 30.12 in 10.0 mi NNW 6.9 mph - N/A   Overcast
6:15 AM 39.2 °F 35.0 °F 37.4 °F 93% 30.12 in 10.0 mi NNW 5.8 mph - N/A   Overcast
6:35 AM 41.0 °F 37.1 °F 39.2 °F 93% 30.14 in 10.0 mi NNW 5.8 mph - N/A   Overcast
6:55 AM 41.0 °F 36.4 °F 39.2 °F 93% 30.14 in 10.0 mi NNW 6.9 mph - N/A   Overcast
7:15 AM 41.0 °F 39.0 °F 39.2 °F 93% 30.15 in 10.0 mi NNW 3.5 mph - N/A   Overcast
7:35 AM 41.0 °F 35.8 °F 39.2 °F 93% 30.15 in 10.0 mi NNW 8.1 mph - N/A   Overcast
7:55 AM 41.0 °F 38.0 °F 39.2 °F 93% 30.15 in 10.0 mi NNW 4.6 mph - N/A   Overcast
8:15 AM 41.0 °F 36.4 °F 41.0 °F 100% 30.15 in 10.0 mi NNW 6.9 mph - N/A   Overcast
8:35 AM 41.0 °F 37.1 °F 41.0 °F 100% 30.16 in 10.0 mi North 5.8 mph - N/A   Overcast
8:55 AM 41.0 °F 36.4 °F 41.0 °F 100% 30.17 in 10.0 mi NNW 6.9 mph - N/A   Overcast
9:15 AM 41.0 °F 36.4 °F 41.0 °F 100% 30.18 in 10.0 mi NW 6.9 mph - N/A   Overcast
9:35 AM 41.0 °F 36.4 °F 41.0 °F 100% 30.18 in 10.0 mi NNW 6.9 mph - N/A   Overcast
9:55 AM 41.0 °F 34.3 °F 41.0 °F 100% 30.19 in 5.0 mi North 11.5 mph - N/A   Overcast
10:15 AM 41.0 °F 36.4 °F 41.0 °F 100% 30.19 in 3.0 mi NW 6.9 mph - N/A   Overcast
10:35 AM 41.0 °F 37.1 °F 41.0 °F 100% 30.20 in 1.0 mi NW 5.8 mph - N/A   Overcast
10:55 AM 41.0 °F 36.4 °F 41.0 °F 100% 30.20 in 0.5 mi NW 6.9 mph - N/A Fog Fog
11:15 AM 41.0 °F 39.0 °F 41.0 °F 100% 30.21 in 0.2 mi NNW 3.5 mph - N/A Fog Fog
11:35 AM 41.0 °F 37.1 °F 41.0 °F 100% 30.21 in 0.2 mi NW 5.8 mph - N/A Fog Fog
11:55 AM 41.0 °F 37.1 °F 41.0 °F 100% 30.21 in 1.0 mi North 5.8 mph - N/A   Overcast
12:15 PM 41.0 °F 36.4 °F 41.0 °F 100% 30.22 in 3.0 mi NNW 6.9 mph - N/A   Overcast
12:35 PM 41.0 °F 38.0 °F 41.0 °F 100% 30.22 in 5.0 mi NNW 4.6 mph - N/A   Overcast
12:55 PM 42.8 °F 38.6 °F 42.8 °F 100% 30.21 in 7.0 mi NNW 6.9 mph - N/A   Overcast
1:15 PM 42.8 °F 37.5 °F 42.8 °F 100% 30.21 in 10.0 mi NNW 9.2 mph - N/A   Overcast
1:35 PM 42.8 °F 37.0 °F 42.8 °F 100% 30.21 in 10.0 mi North 10.4 mph 18.4 mph N/A   Overcast
1:55 PM 42.8 °F 37.0 °F 42.8 °F 100% 30.21 in 7.0 mi NNW 10.4 mph - N/A   Overcast
2:15 PM 42.8 °F 38.6 °F 42.8 °F 100% 30.21 in 5.0 mi NNW 6.9 mph - N/A   Overcast
2:35 PM 42.8 °F 37.5 °F 42.8 °F 100% 30.21 in 7.0 mi North 9.2 mph - N/A   Light Drizzle
2:55 PM 42.8 °F 38.0 °F 42.8 °F 100% 30.20 in 7.0 mi North 8.1 mph - N/A Rain Light Rain
3:15 PM 42.8 °F 38.0 °F 42.8 °F 100% 30.20 in 10.0 mi NW 8.1 mph - N/A   Overcast
3:35 PM 42.8 °F 39.3 °F 42.8 °F 100% 30.21 in 10.0 mi North 5.8 mph - N/A   Overcast
3:55 PM 42.8 °F 37.5 °F 42.8 °F 100% 30.21 in 10.0 mi North 9.2 mph - N/A   Overcast
4:15 PM 42.8 °F 38.6 °F 42.8 °F 100% 30.20 in 7.0 mi North 6.9 mph - N/A   Overcast
4:35 PM 42.8 °F 39.3 °F 42.8 °F 100% 30.21 in 7.0 mi NNW 5.8 mph - N/A   Overcast
4:55 PM 42.8 °F 39.3 °F 42.8 °F 100% 30.21 in 10.0 mi NNW 5.8 mph - N/A   Overcast
5:15 PM 42.8 °F 39.3 °F 42.8 °F 100% 30.21 in 10.0 mi NNW 5.8 mph - N/A   Overcast
5:35 PM 42.8 °F 40.1 °F 42.8 °F 100% 30.21 in 7.0 mi NNW 4.6 mph - N/A   Overcast
5:55 PM 42.8 °F 38.6 °F 42.8 °F 100% 30.21 in 3.0 mi NW 6.9 mph - N/A   Light Drizzle
6:15 PM 42.8 °F 38.6 °F 42.8 °F 100% 30.21 in 10.0 mi NNW 6.9 mph - N/A   Overcast
6:35 PM 42.8 °F 40.1 °F 42.8 °F 100% 30.21 in 7.0 mi NNW 4.6 mph - N/A   Overcast
6:55 PM 42.8 °F 40.1 °F 42.8 °F 100% 30.21 in 4.0 mi NNW 4.6 mph - N/A   Overcast
7:15 PM 42.8 °F 40.1 °F 42.8 °F 100% 30.21 in 7.0 mi NNW 4.6 mph - N/A   Overcast
7:35 PM 42.8 °F 38.6 °F 42.8 °F 100% 30.21 in 7.0 mi North 6.9 mph - N/A   Overcast
7:55 PM 42.8 °F 39.3 °F 42.8 °F 100% 30.21 in 7.0 mi NNW 5.8 mph - N/A   Overcast
8:15 PM 42.8 °F 38.0 °F 42.8 °F 100% 30.21 in 7.0 mi NNW 8.1 mph - N/A   Overcast
8:35 PM 42.8 °F 39.3 °F 42.8 °F 100% 30.21 in 10.0 mi NNW 5.8 mph - N/A   Overcast
8:55 PM 42.8 °F 38.6 °F 42.8 °F 100% 30.22 in 10.0 mi North 6.9 mph - N/A   Overcast
9:15 PM 42.8 °F 40.1 °F 42.8 °F 100% 30.22 in 10.0 mi NW 4.6 mph - N/A   Overcast
9:35 PM 42.8 °F 40.1 °F 42.8 °F 100% 30.22 in 10.0 mi NNW 4.6 mph - N/A   Overcast
9:55 PM 42.8 °F 39.3 °F 42.8 °F 100% 30.21 in 10.0 mi NNW 5.8 mph - N/A   Overcast
10:15 PM 42.8 °F 38.6 °F 42.8 °F 100% 30.21 in 10.0 mi NNW 6.9 mph - N/A   Overcast
10:35 PM 42.8 °F 39.3 °F 42.8 °F 100% 30.21 in 10.0 mi North 5.8 mph - N/A   Overcast
10:55 PM 42.8 °F 39.3 °F 42.8 °F 100% 30.21 in 10.0 mi NNW 5.8 mph - N/A   Overcast
11:10 PM 42.8 °F 38.6 °F 42.8 °F 100% 30.21 in 10.0 mi NNW 6.9 mph - N/A   Overcast
11:35 PM 42.8 °F 39.3 °F 42.8 °F 100% 30.21 in 10.0 mi North 5.8 mph - N/A   Overcast
11:55 PM 42.8 °F 40.1 °F 42.8 °F 100% 30.21 in 10.0 mi NNW 4.6 mph - N/A   Overcast